DELTA 1 DEB, 10338

Orbit data source: Space-Track

DELTA 1 DEB, 10338 is space debris in LEO originally from a launch on Thu, 14 Jul 1977 UTC launched from the Air Force Eastern Test Range (AFETR). Debris objects in space refer to the collection of defunct objects orbiting the Earth. Examples of debris include non-operational satellites, rocket bodies, and fragments generated from explosions, collisions, or faulty payload assembly.

Loading next visibility...
Identifier
10338, 1977-065DM
Orbit
LEO
Country
Flag of USUS
Related business
Manufacturer
Unknown
Mission
Spacecraft
Bus & Motor
Unknown
Mass
Unknown
Launch date (UTC)
1977-07-14 (49 years ago)
Launch vehicle
Unknown
Launch site
Air Force Eastern Test Range (AFETR)
Object type
Payload
Rocket body
Debris
Shape & HBR
Unknown shape, 0.1 m
Radar Cross Section
Small (<0.1 m²)

Expand to show TLE details & history
Last TLE update: 6 hours ago

TLE from 6 hours ago
0 DELTA 1 DEB
1 10338U 77065DM  26133.39141414  .00001232  00000-0  20969-3 0  9999
2 10338  29.0599 162.7987 0617374 196.6130 161.3339 13.84042351408936
Epoch: 2026-05-13T09:23Z
TLE epoch observation values (Epoch: 2026-05-13T09:23:38.181Z)
Latitude
-0.00002°
Longitude
150.73747°
Altitude
1,379.098 km
Speed
6.958 km/s
True Right ascension
10h 51m 11s
True Declination
0° 00' 00"
Sunlit
Object was in daylight at epoch
Visualization orbit readout
Latitude
Unknown
Longitude
Unknown
Altitude
Unknown
Speed
Unknown
Apparent Right ascension
Unknown
Apparent Declination
Unknown
Sunlit
N/A
Visualization observer readout
Local Sidereal Time
00:17:03
Azimuth
Unknown
Elevation
Unknown
Doppler factor
Unknown
Orbital elements
Apogee altitude
1,406.132 km
Perigee altitude
500.86 km
Semi-major axis
7,331.633 km
Eccentricity
0.06174
Inclination
29.0599°
RAAN
162.7987°
Arg. of periapsis
196.613°
True anomaly
163.44302°
Mean anomaly
161.3339°
Eccentric anomaly
162.40328°
Mean motion
3.45734 °/min
Orbital period
104.13 mins
BSTAR
0.00020969
Loading maneuver chart data...
Computing Atmospheric mass density...
Loading historical data...
Loading historical data...
Loading historical data...
Loading historical data...
Loading historical data...
Loading historical data...
Loading historical data...

Documentation

Showing up to 5 results
|